Location: Unspecified
(0.0000°N, 0.0000°E)
Time: 02:35:14
(UTC+00:00)

DMSP B5D2-5 - Pass Details

Date: 13 June 2023
Orbit: 711 x 814 km, 98.7° (Epoch: 28 September)

Event Time Altitude Azimuth Distance (km) Brightness Sun altitude
Exits shadow 19:33:49 24° 178° (S) 1,460 6.2 -21.4°
Maximum altitude 19:36:43 72° 257° (WSW) 761 5.0 -22.1°
Drops below altitude 10° 19:41:35 10° 342° (NNW) 2,232 8.0 -23.2°
Sets 19:43:53 0° 344° (NNW) 3,166 8.8 -23.7°
